CZ-6A DEB, 56623

Orbit data source: Space-Track

CZ-6A DEB, 56623 is space debris in SSO originally from a launch on Fri, 11 Nov 2022 UTC launched from the Taiyaun Space Center, China (TSC). Debris objects in space refer to the collection of defunct objects orbiting the Earth. Examples of debris include non-operational satellites, rocket bodies, and fragments generated from explosions, collisions, or faulty payload assembly.

Loading next visibility...
Identifier
56623, 2022-151AEX
Orbit
SSO
Country
Flag of CNCN / PRC
Related business
Manufacturer
SAST
Mission
Spacecraft
Bus & Motor
Unknown
Mass
Unknown
Launch date (UTC)
2022-11-11 (3 years ago)
Launch vehicle
Unknown
Launch site
Taiyaun Space Center, China (TSC)
Object type
Payload
Rocket body
Debris
Shape & HBR
Unknown shape, 0.1 m
Radar Cross Section
Small (<0.1 m²)

Expand to show TLE details & history
Last TLE update: 6 days ago

TLE from 6 days ago
0 CZ-6A DEB
1 56623U 22151AEX 26124.69137418  .00000396  00000-0  28652-3 0  9991
2 56623  98.8934 103.2175 0103583 154.7972 205.8299 13.99594181155151
Epoch: 2026-05-04T16:35Z
TLE epoch observation values (Epoch: 2026-05-04T16:35:34.729Z)
Latitude
0.00007°
Longitude
-8.25415°
Altitude
966.054 km
Speed
7.334 km/s
True Right ascension
06h 52m 52s
True Declination
0° 00' 00"
Sunlit
Object was in daylight at epoch
Visualization orbit readout
Latitude
Unknown
Longitude
Unknown
Altitude
Unknown
Speed
Unknown
Apparent Right ascension
Unknown
Apparent Declination
Unknown
Sunlit
N/A
Visualization observer readout
Local Sidereal Time
21:27:35
Azimuth
Unknown
Elevation
Unknown
Doppler factor
Unknown
Orbital elements
Apogee altitude
967.705 km
Perigee altitude
817.085 km
Semi-major axis
7,270.532 km
Eccentricity
0.01036
Inclination
98.8934°
RAAN
103.2175°
Arg. of periapsis
154.7972°
True anomaly
205.3187°
Mean anomaly
205.8299°
Eccentric anomaly
205.57371°
Mean motion
3.50101 °/min
Orbital period
102.83 mins
BSTAR
0.00028652
Loading maneuver chart data...
Computing Atmospheric mass density...
Loading historical data...
Loading historical data...
Loading historical data...
Loading historical data...
Loading historical data...
Loading historical data...
Loading historical data...

Documentation

Showing up to 5 results
|